Regional Weather Roundup
Issued by NWS Northern Indiana

Home | Current Version | Previous Version | Graphics & Text | Print | Product List | Glossary On
Versions: 1 2 3 4 5 6 7 8 9 10 11 12 13 14 15 16 17 18 19 20 21 22 23 24 25 26 27 28 29 30 31 32 33 34 35 36 37 38 39 40 41 42 43 44 45 46 47 48 49 50
000
ASUS43 KIWX 310800
RWRIWX

KIWX WEATHER ROUNDUP
NATIONAL WEATHER SERVICE NORTHERN INDIANA
400 AM EDT WED AUG 31 2016

NOTE: "FAIR" INDICATES FEW OR NO CLOUDS BELOW 12,000 FEET WITH NO
SIGNIFICANT WEATHER AND/OR OBSTRUCTIONS TO VISIBILITY.

* THESE STATIONS ARE NOT UNDER NWS QUALITY CONTROL. THEY ALSO MAY NOT
  REPORT WEATHER SUCH AS PRECIPITATION OR FOG.

INZ001>027-310900-
NORTHERN INDIANA

CITY           SKY/WX    TMP DP  RH WIND       PRES   REMARKS
KNOX*          CLOUDY    70  61  73 CALM      30.03S VSB 1/2
SOUTH BEND     CLOUDY    71  70  96 CALM      30.03S
GOSHEN         CLOUDY    71  67  87 SW5       30.02F
MONTICELLO*    CLOUDY    70  66  88 SW3       30.02S
ANGOLA*        CLEAR     70  63  78 CALM      30.02S
FORT WAYNE     CLOUDY    69  68  96 W3        30.02F
PERU/GRISSOM   CLOUDY    70  70 100 W5        30.02F

$$
INZ028>050-310900-
CENTRAL INDIANA

CITY           SKY/WX    TMP DP  RH WIND       PRES   REMARKS
LAFAYETTE      CLOUDY    69  69 100 W3        30.02F
KOKOMO*        CLOUDY    70  68  94 W3        30.03S
MUNCIE*        CLOUDY    70  68  93 W3        30.03F FOG
INDIANAPOLIS   CLOUDY    71  70  96 W5        30.03S

$$
MIZ043>046-050>051-056>058-064>065-071>073-077>080-310900-
SOUTHWEST LOWER MICHIGAN

CITY           SKY/WX    TMP DP  RH WIND       PRES   REMARKS
BATTLE CREEK   CLOUDY    68  68 100 CALM      30.04S
BENTON HARBOR  CLOUDY    72  69  90 CALM      30.02S FOG
COLDWATER*     CLOUDY    69  69 100 CALM      30.03S FOG
HILLSDALE*     CLOUDY    68  67  96 W6        30.02F FOG
HOLLAND        CLOUDY    70  69  97 CALM      30.03S FOG
GRAND RAPIDS   CLOUDY    72  69  90 NW5       30.03S FOG
KALAMAZOO      CLOUDY    70  67  90 CALM      30.03S
STURGIS*       CLOUDY    69  68  94 CALM      30.02S FOG
THREE RIVERS*  FAIR      70  69  99 CALM      30.03S FOG

$$
OHZ001>008-015>018-024>025-310900-
NORTHWEST OHIO

CITY           SKY/WX    TMP DP  RH WIND       PRES   REMARKS
DEFIANCE       CLOUDY    69  67  93 S3        30.01F FOG
FINDLAY        CLOUDY    71  66  84 NW5       30.02S
TOLEDO EXPRESS CLOUDY    68  68 100 S3        30.01S
TOLEDO METCALF CLOUDY    71  70  96 S3        30.02S
LIMA           FOG       68  68 100 S6        30.03S VSB 3/4

$$
AND FOR LAKE MICHIGAN COASTAL AND OPEN LAKE BUOY OBSERVATIONS

STATION/POSITION TEMP    WIND        PRES    VSBY  WAVE
                 AIR SEA DIR/SP/G                  HT/PER
                 (F)     (DEG/KT/KT) (MB)    (MI)  (FT/S)
CALUMET HARBOR    73     200/  2/  3 1016.7F
MICHIGAN CITY     73     320/  8/  8   N/A
BURNS HARBOR      74     310/  5/  6 1017.6S
SAINT JOSEPH      73     310/  1/  2 1017.6R
SOUTH LAKE BUOY   74 75  290/ 10/ 12 1015.8          0
4 MI NW BRIDGMAN  73 72  310/  4/  6 1016.3F         1
MICHIGAN CITY     74 71  330/  6/  6   N/A           1

$$
&&




USA.gov is the U.S. government's official web portal to all federal, state and local government web resources and services.